Regional Weather Roundup
Issued by NWS State College, PA

Home | Current Version | Previous Version | Text Only | Print | Product List | Glossary Off
Versions: 1 2 3 4 5 6 7 8 9 10 11 12 13 14 15 16 17 18 19 20 21 22 23 24 25 26 27 28 29 30 31 32 33 34 35 36 37 38 39 40 41 42 43 44 45 46 47 48 49 50

000
ASUS41 KCTP 251003
RWRCTP

REGIONAL WEATHER ROUNDUP
NATIONAL WEATHER SERVICE STATE COLLEGE PA
600 AM EDT SAT OCT 25 2014

Note: "fair" indicates few or no clouds below 12,000 feet with no
significant weather and/or obstructions to visibility.

* = STATION THAT DOES NOT REPORT PRECIPITATION /E.G. RAIN...SNOW...ETC/
    THUNDER OR FOG.

PAZ002>004-007>009-013>016-020>023-029>032-251100-
WESTERN PENNSYLVANIA

CITY           SKY/WX    TMP DP  RH WIND       PRES   REMARKS
ERIE           CLOUDY    53  43  68 S7        29.90S
MEADVILLE      CLOUDY    49  40  71 CALM      29.92R
FRANKLIN*      CLOUDY    45  37  76 SW8       29.94R
NEW CASTLE       N/A     44  39  82 CALM      29.95S
BEAVER COUNTY  NOT AVBL
BUTLER*        CLEAR     45  37  76 SW5       29.97R
PITTSBURGH INT PTCLDY    47  39  74 SW3       29.96S
PITTSBURGH     MOCLDY    47  38  71 S8        29.95F
INDIANA*       CLOUDY    46  41  81 SW3       29.98F
LATROBE        PTCLDY    48  43  81 SW10      29.97F
WASHINGTON CO* CLEAR     41  37  87 SW3       29.99R
$$

PAZ004>006-010>012-017>019-024>028-033>037-041-042-045-046-049>053-251100-
CENTRAL PENNSYLVANIA

CITY           SKY/WX    TMP DP  RH WIND       PRES   REMARKS
BRADFORD       CLOUDY    46  39  76 CALM      29.90F
DUBOIS         PTCLDY    42  38  85 SW3       29.92S
CLEARFIELD     CLOUDY    44  39  82 S5        29.93F
JOHNSTOWN      CLOUDY    48  37  65 W9        29.94F
ALTOONA        MOCLDY    45  38  76 W3        29.95S
STATE COLLEGE  CLEAR     45  37  76 SW6       29.93S
WILLIAMSPORT   CLOUDY    41  34  76 CALM      29.92S
SELINSGROVE    MOCLDY    39  37  92 CALM      29.93S
FT INDIANTOWN  CLEAR     55  40  59 W7        29.92R
CAPITAL CITY   CLEAR     50  39  66 N3        29.93R
HARRISBURG     CLEAR     43  39  86 CALM      29.92S
YORK           CLEAR     39  37  92 CALM      29.93S
$$

PAZ038>040-043-044-047-048-054-055-060>062-067>071-251100-
EASTERN PENNSYLVANIA

CITY           SKY/WX    TMP DP  RH WIND       PRES   REMARKS
SCRANTON       CLEAR     39  33  79 CALM      29.89F
MOUNT POCONO   CLEAR     43  32  65 NW10      29.86F
ALLENTOWN      CLEAR     41  32  70 CALM      29.90S
QUAKERTOWN*    SUNNY     37  32  81 CALM      29.90F
READING        CLEAR     44  37  76 CALM      29.90F
LANCASTER      CLEAR     45  38  76 W6        29.92S
COATESVILLE    SUNNY     43  39  87 NW5       29.92S
POTTSTOWN      CLEAR     40  35  83 CALM      29.92S
BLUE BELL      CLEAR     41  37  87 CALM      29.90S
DOYLESTOWN     CLEAR     40  34  79 CALM      29.89F
WILLOW GROVE   NOT AVBL
NORTH PHILA    CLEAR     42  33  70 W3        29.92S
PHILADELPHIA   CLEAR     49  36  61 W6        29.92S
$$



USA.gov is the U.S. government's official web portal to all federal, state and local government web resources and services.